Weather History for KABE - March, 2014

Change the Weather History Date:

Wednesday, March 19, 2014

  Actual Average Record
Temperature  
Mean Temperature 36 °F 40 °F  
Max Temperature 42 °F 51 °F 77 °F (2012)
Min Temperature 29 °F 30 °F -1 °F (1967)
Degree Days  
Heating Degree Days 29 25  
Month to date heating degree days 638 532  
Since 1 July heating degree days 5236 4841  
Cooling Degree Days 0 0  
Month to date cooling degree days 0 0  
Year to date cooling degree days 0 0  
Moisture  
Dew Point 32 °F    
Average Humidity 82    
Maximum Humidity 100    
Minimum Humidity 63    
Precipitation  
Precipitation 0.43 in 0.11 in 1.59 in (1975)
Month to date precipitation 0.89 1.97  
Year to date precipitation 9.88 7.70  
Snow  
Snow 0.00 in 0.20 in 5.70 in (1956)
Month to date snowfall 0.2 3.7  
Since 1 July snowfall 66.9 30.7  
Snow Depth 0.00 in    
Sea Level Pressure  
Sea Level Pressure 30.07 in    
Wind  
Wind Speed 7 mph (ENE)    
Max Wind Speed 15 mph    
Max Gust Speed 19 mph    
Visibility 6 miles    
Events Rain    
T = Trace of Precipitation, MM = Missing Value Source: NWS Daily Summary

Daily Weather History Graph

Daily Weather History Graph

Search for Another Location

Airport or City:

Trip Planner

Search our weather history database for the weather conditions in past years. The results will help you decide how hot, cold, wet, or windy it might be!

Date:

Astronomy

Mar. 19, 2014 Rise Set
Actual Time 7:06 AM EDT 7:12 PM EDT
Civil Twilight 6:39 AM EDT 7:40 PM EDT
Nautical Twilight 6:07 AM EDT 8:12 PM EDT
Astronomical Twilight 5:35 AM EDT 8:44 PM EDT
Moon 10:30 PM EDT (3/19) 8:30 AM EDT (3/19)
Length of Visible Light 13h 00m
Length of Day
12h 05m
Waning Gibbous, 91% of the Moon is Illuminated
Mar 19
Waning Gibbous
Mar 23
Last Quarter
Mar 30
New
Apr 7
First Quarter
Apr 15
Full

Hourly Weather History & Observations

Time (EDT) Temp. Windchill Dew Point Humidity Pressure Visibility Wind Dir Wind Speed Gust Speed Precip Events Conditions
12:51 AM 28.9 °F 23.9 °F 18.0 °F 64% 30.27 in 10.0 mi NE 4.6 mph - N/A   Clear
1:51 AM 30.9 °F 27.5 °F 21.9 °F 69% 30.27 in 10.0 mi NNE 3.5 mph - N/A   Overcast
2:51 AM 30.9 °F 27.5 °F 23.0 °F 72% 30.27 in 10.0 mi NNW 3.5 mph - N/A   Overcast
3:51 AM 32.0 °F 26.4 °F 24.1 °F 73% 30.25 in 10.0 mi NE 5.8 mph - N/A   Overcast
4:19 AM 32.0 °F 25.6 °F 25.0 °F 75% 30.25 in 10.0 mi ENE 6.9 mph - N/A   Overcast
4:26 AM 32.0 °F 24.8 °F 25.0 °F 75% 30.24 in 10.0 mi ENE 8.1 mph - N/A   Overcast
4:51 AM 32.0 °F 25.6 °F 24.1 °F 73% 30.26 in 10.0 mi ENE 6.9 mph - N/A   Overcast
5:05 AM 32.0 °F - 24.1 °F 73% 30.27 in 10.0 mi Calm Calm - N/A   Overcast
5:51 AM 32.0 °F 23.6 °F 24.1 °F 73% 30.26 in 10.0 mi ENE 10.4 mph - N/A   Overcast
5:58 AM 32.0 °F 25.6 °F 24.1 °F 73% 30.26 in 10.0 mi East 6.9 mph - N/A   Overcast
6:06 AM 32.0 °F 24.8 °F 24.1 °F 73% 30.26 in 10.0 mi East 8.1 mph - N/A   Overcast
6:51 AM 30.9 °F 24.3 °F 23.0 °F 72% 30.27 in 10.0 mi ENE 6.9 mph - N/A   Overcast
7:51 AM 32.0 °F 25.6 °F 24.1 °F 73% 30.27 in 10.0 mi ENE 6.9 mph - N/A   Overcast
8:51 AM 33.1 °F 28.7 °F 25.0 °F 72% 30.27 in 10.0 mi ENE 4.6 mph - N/A   Overcast
9:51 AM 35.1 °F 29.3 °F 27.0 °F 72% 30.26 in 10.0 mi East 6.9 mph - 0.00 in Rain Light Rain
10:51 AM 36.0 °F 28.5 °F 28.9 °F 76% 30.24 in 10.0 mi East 10.4 mph - 0.00 in   Overcast
11:16 AM 36.0 °F 28.5 °F 30.0 °F 79% 30.19 in 8.0 mi East 10.4 mph - 0.00 in Rain Light Rain
11:31 AM 36.0 °F 28.5 °F 30.0 °F 79% 30.19 in 8.0 mi East 10.4 mph - 0.00 in Rain Light Rain
11:51 AM 37.9 °F 31.5 °F 30.9 °F 76% 30.20 in 10.0 mi East 9.2 mph - 0.00 in   Overcast
12:51 PM 39.9 °F 33.9 °F 32.0 °F 73% 30.16 in 10.0 mi ESE 9.2 mph - 0.00 in   Overcast
1:51 PM 39.9 °F 34.5 °F 32.0 °F 73% 30.13 in 10.0 mi East 8.1 mph - 0.00 in Rain Light Rain
2:51 PM 41.0 °F 35.8 °F 34.0 °F 76% 30.10 in 4.0 mi East 8.1 mph - 0.00 in Rain Light Rain
3:20 PM 39.9 °F 34.5 °F 36.0 °F 86% 30.07 in 2.0 mi East 8.1 mph - 0.01 in Rain Light Rain
3:28 PM 39.9 °F 35.1 °F 37.0 °F 89% 30.07 in 1.8 mi East 6.9 mph - 0.02 in Rain Light Rain
3:38 PM 39.9 °F 33.9 °F 37.0 °F 89% 30.06 in 1.8 mi East 9.2 mph - 0.03 in Rain Light Rain
3:44 PM 39.9 °F 33.9 °F 37.0 °F 89% 30.06 in 2.0 mi ENE 9.2 mph - 0.04 in Rain Light Rain
3:51 PM 39.9 °F 34.5 °F 37.0 °F 89% 30.07 in 2.0 mi East 8.1 mph - 0.04 in Rain Light Rain
4:20 PM 39.9 °F 32.5 °F 37.0 °F 89% 30.04 in 4.0 mi East 12.7 mph - 0.02 in Rain Light Rain
4:28 PM 39.9 °F 32.5 °F 37.0 °F 89% 30.04 in 2.5 mi East 12.7 mph - 0.03 in Rain Light Rain
4:36 PM 39.9 °F 33.4 °F 37.0 °F 89% 30.03 in 3.0 mi East 10.4 mph - 0.03 in Rain Light Rain
4:51 PM 39.9 °F 33.4 °F 37.0 °F 89% 30.04 in 4.0 mi East 10.4 mph - 0.03 in Rain Light Rain
5:51 PM 39.0 °F 32.3 °F 36.0 °F 89% 30.01 in 2.0 mi East 10.4 mph - 0.01 in Rain Light Rain
6:14 PM 39.0 °F 32.3 °F 36.0 °F 89% 29.99 in 1.5 mi East 10.4 mph - 0.03 in Rain Light Rain
6:29 PM 37.9 °F 30.0 °F 36.0 °F 93% 29.97 in 3.0 mi East 12.7 mph - 0.04 in Rain Light Rain
6:36 PM 37.9 °F 30.0 °F 36.0 °F 93% 29.95 in 2.0 mi East 12.7 mph - 0.05 in Rain Light Rain
6:44 PM 37.9 °F 30.5 °F 36.0 °F 93% 29.94 in 4.0 mi East 11.5 mph - 0.05 in Rain Light Rain
6:51 PM 37.9 °F 30.0 °F 35.1 °F 89% 29.94 in 6.0 mi ENE 12.7 mph - 0.05 in Rain Light Rain
7:39 PM 37.0 °F 32.4 °F 35.1 °F 93% 29.94 in 2.5 mi NE 5.8 mph - 0.08 in Rain Heavy Rain
7:51 PM 37.0 °F 31.0 °F 35.1 °F 93% 29.94 in 4.0 mi NNE 8.1 mph - 0.13 in Rain Light Rain
8:02 PM 37.0 °F 33.3 °F 35.1 °F 93% 29.95 in 5.0 mi NW 4.6 mph - 0.01 in Rain Rain
8:12 PM 37.0 °F 32.4 °F 35.1 °F 93% 29.94 in 2.0 mi NNW 5.8 mph - 0.08 in Rain Heavy Rain
8:24 PM 37.0 °F 32.4 °F 35.1 °F 93% 29.93 in 2.5 mi NE 5.8 mph - 0.13 in Rain Rain
8:31 PM 37.0 °F 31.6 °F 35.1 °F 93% 29.92 in 4.0 mi ENE 6.9 mph - 0.14 in Rain Light Rain
8:51 PM 37.9 °F 32.1 °F 36.0 °F 93% 29.92 in 10.0 mi East 8.1 mph - 0.16 in Rain Light Rain
9:11 PM 37.9 °F 33.5 °F 36.0 °F 93% 29.90 in 10.0 mi ENE 5.8 mph - 0.00 in   Overcast
9:20 PM 37.9 °F 32.7 °F 36.0 °F 93% 29.89 in 8.0 mi ENE 6.9 mph - 0.00 in Rain Light Rain
9:32 PM 37.9 °F 32.7 °F 36.0 °F 93% 29.89 in 8.0 mi NE 6.9 mph - 0.00 in Rain Light Rain
9:51 PM 37.9 °F 35.5 °F 36.0 °F 93% 29.89 in 6.0 mi NE 3.5 mph - 0.00 in   Overcast
10:25 PM 37.9 °F 34.4 °F 36.0 °F 93% 29.86 in 4.0 mi ENE 4.6 mph - N/A   Overcast
10:39 PM 37.9 °F - 36.0 °F 93% 29.86 in 2.5 mi Calm Calm - N/A   Overcast
10:51 PM 39.0 °F 35.7 °F 37.0 °F 93% 29.86 in 2.0 mi East 4.6 mph - N/A   Overcast
11:19 PM 39.0 °F - 37.0 °F 93% 29.84 in 2.5 mi Calm Calm - N/A   Overcast
11:26 PM 39.0 °F 36.8 °F 37.0 °F 93% 29.84 in 3.0 mi NE 3.5 mph - N/A   Overcast
11:44 PM 37.9 °F 35.5 °F 36.0 °F 93% 29.84 in 2.5 mi NNW 3.5 mph - N/A   Overcast
11:51 PM 37.9 °F 35.5 °F 37.0 °F 97% 29.85 in 2.0 mi WNW 3.5 mph - N/A   Overcast